This demonstration page uses our WeatherBlox Daily Observations layout. Learn more.

Left ArrowRight Arrow

30.21309, -93.2044

Hourly Observations for August 8, 2022

Temp ( °F °C ) Dew Point ( °F °C ) Humidity (%) Winds ( mph kmh ) Pressure ( in mb ) Visibility ( mi km ) Precip ( " mm )
12:15 am 00:15 Clear 75 23.8 73 22.6 93 93 Calm 30.09 1019 10 16 0.00 0.00
12:35 am 00:35 Clear 75 23.9 73 22.6 92 92 Calm 30.10 1019 10 16 0.00 0.00
12:55 am 00:55 Clear 74 23.6 72 22.4 93 93 E 3 6 30.10 1019 10 16 0.00 0.00
1:15 am 01:15 Clear 75 23.7 72 22.4 92 92 Calm 30.10 1019 10 16 0.00 0.00
1:35 am 01:35 Clear 75 23.8 72 22.4 92 92 Calm 30.09 1019 10 16 0.00 0.00
1:55 am 01:55 Clear 75 23.9 72 22.3 91 91 Calm 30.09 1019 10 16 0.00 0.00
2:15 am 02:15 Clear 75 23.8 72 22.3 91 91 ENE 5 7 30.09 1019 10 16 0.00 0.00
2:35 am 02:35 Clear 75 23.8 72 22.3 91 91 ENE 5 7 30.08 1019 10 16 0.00 0.00
2:55 am 02:55 Clear 75 23.7 72 22.3 92 92 E 3 6 30.08 1019 10 16 0.00 0.00
3:15 am 03:15 Clear 74 23.6 72 22.3 92 92 E 5 7 30.08 1019 10 16 0.00 0.00
3:35 am 03:35 Partly Cloudy 74 23.5 72 22.3 93 93 ENE 5 7 30.08 1019 10 16 0.00 0.00
3:55 am 03:55 Clear with Nearby Thunderstorms 74 23.6 72 22.2 92 92 ENE 5 7 30.08 1019 10 16 0.00 0.00
4:15 am 04:15 Clear 74 23.5 72 22 91 91 E 3 6 30.08 1019 10 16 0.00 0.00
4:35 am 04:35 Clear 74 23.1 71 21.9 93 93 ESE 3 6 30.08 1019 10 16 0.00 0.00
4:55 am 04:55 Clear 74 23.3 72 22 92 92 Calm 30.08 1019 10 16 0.00 0.00
5:15 am 05:15 Clear 74 23.3 71 21.9 92 92 Calm 30.07 1018 10 16 0.00 0.00
5:35 am 05:35 Clear 74 23.3 71 21.9 92 92 E 3 6 30.07 1018 10 16 0.00 0.00
6:00 am 06:00 Mostly Clear 73 23 72 22 94 94 Calm 30.08 1019 10 16 0.00 0.00
6:50 am 06:50 Mostly Sunny 73 23 72 22 94 94 Calm 30.08 1019 10 16 0.00 0.00
7:50 am 07:50 Partly Cloudy 75 24 72 22 89 89 Calm 30.09 1019 10 16 0.00 0.00
8:52 am 08:52 Partly Cloudy 79 26 73 23 84 84 Calm 30.12 1020 10 16 0.00 0.00
9:50 am 09:50 Partly Cloudy 84 29 77 25 79 79 Calm 30.12 1020 10 16 0.00 0.00
10:47 am 10:47 Mostly Cloudy 88 31 75 24 66 66 Calm 30.11 1020 10 16 0.00 0.00
11:47 am 11:47 Mostly Cloudy 88 31 75 24 66 66 Calm 30.10 1019 10 16 0.00 0.00
12:55 pm 12:55 Mostly Cloudy 91 33 77 25 63 63 Calm 30.08 1019 10 16 0.00 0.00
1:47 pm 13:47 Mostly Cloudy 91 33 75 24 59 59 SE 8 13 30.06 1018 10 16 0.00 0.00
2:50 pm 14:50 Mostly Cloudy with Thunderstorms 91 33 75 24 59 59 SSE 9 15 30.04 1017 10 16 0.00 0.00
3:50 pm 15:50 Mostly Cloudy 86 30 75 24 70 70 SSW 9 15 30.03 1017 10 16 0.00 0.00
4:48 pm 16:48 Partly Cloudy 88 31 75 24 66 66 SSW 10 17 30.02 1017 10 16 0.00 0.00
5:55 pm 17:55 Mostly Sunny 86 30 75 24 70 70 S 8 13 30.01 1016 10 16 0.00 0.00
6:54 pm 18:54 Partly Cloudy 84 29 75 24 74 74 S 7 11 30.02 1017 10 16 0.00 0.00
7:46 pm 19:46 Partly Cloudy 84 29 75 24 74 74 S 5 7 30.03 1017 10 16 0.00 0.00
8:47 pm 20:47 Mostly Clear 81 27 75 24 84 84 S 6 9 30.04 1017 10 16 0.00 0.00
9:52 pm 21:52 Partly Cloudy 81 27 75 24 84 84 E 6 9 30.07 1018 10 16 0.00 0.00
10:15 pm 22:15 Clear 79 25.9 75 24 89 89 E 5 7 30.07 1018 10 16 0.00 0.00
10:35 pm 22:35 Clear 78 25.4 75 23.8 91 91 E 5 7 30.07 1018 10 16 0.00 0.00
10:55 pm 22:55 Clear 78 25.5 75 23.9 91 91 SE 3 6 30.07 1018 10 16 0.00 0.00
11:15 pm 23:15 Clear 78 25.5 75 24 91 91 Calm 30.06 1018 10 16 0.00 0.00
11:35 pm 23:35 Clear 78 25.5 75 24 91 91 E 3 6 30.06 1018 10 16 0.00 0.00
11:55 pm 23:55 Clear 78 25.4 75 23.8 91 91 Calm 30.07 1018 10 16 0.00 0.00

Powered by AerisWeather